Tracking 35275 objects as of 9-Sep-2026
HD Live streaming from Space Station
objects crossing your sky now

COSMOS 259


COSMOS 259 is no longer on orbit


NORAD ID: 3612
Int'l Code: 1968-113A
Launch date: December 14, 1968
Source: Commonwealth of Independent States (former USSR) (CIS)
Launch site: KAPUSTIN YAR MISSILE AND SPACE COMPLEX (KYMTR)
Decay date: 1969-05-05
Your satellite tracking list
Your tracking list is empty




NASA's NSSDC Master Catalog

Two Line Element Set (TLE):
1 03612U 68113  A 69085.15104203  .00876583 +00000-0 +00000-0 0  9992
2 03612 048.3835 355.6158 0443690 175.6209 184.8713 15.18422027014991
Source of the keplerian elements: AFSPC